DW1774 Weather Reports


time (UTC)temp
F
wind
direction
speed
knots
gust
knots
rain 1hr
in
rain 24hr
in
rain mn
in
humidity
%
barometer
mb
20260906231405 88 221 0.9 2.6 0.00 3.78 0.00 70 1010.6
20260906230403 89 223 1.7 5.2 0.00 4.41 0.00 70 1010.5
20260906225904 89 199 1.7 5.2 0.00 4.41 0.00 69 1010.5
20260906225404 89 196 1.7 4.3 0.00 4.41 0.00 70 1010.6
20260906224904 89 193 0.0 4.3 0.00 4.41 0.00 71 1010.8
20260906224404 89 193 0.9 5.2 0.00 4.41 0.00 70 1010.9
20260906223405 90 210 1.7 6.1 0.00 4.41 0.00 71 1011.0
20260906222404 90 188 1.7 6.1 0.00 4.41 0.00 70 1011.2
20260906221403 90 155 1.7 2.6 0.00 4.41 0.00 71 1011.2
20260906220404 90 152 1.7 5.2 0.00 4.41 0.00 69 1011.3
20260906215904 90 191 1.7 5.2 0.00 4.41 0.00 70 1011.3
20260906214904 91 198 2.6 4.3 0.00 4.41 0.00 68 1011.4
20260906213904 91 177 1.7 4.3 0.00 4.41 0.00 69 1011.6
20260906213404 91 173 0.9 7.0 0.00 4.41 0.00 69 1011.6
20260906212904 91 181 3.5 7.0 0.00 4.41 0.00 68 1011.6
20260906212404 91 205 1.7 7.0 0.00 4.41 0.00 70 1011.7
20260906211904 92 232 2.6 7.8 0.00 4.41 0.00 67 1011.9
20260906210904 93 177 4.3 8.7 0.00 4.41 0.00 65 1012.1
20260906210405 94 184 5.2 8.7 0.00 4.41 0.00 63 1011.9
20260906205904 95 213 1.7 7.8 0.00 4.41 0.00 61 1011.8
20260906205404 94 205 4.3 7.8 0.00 4.41 0.00 62 1011.7
20260906204904 94 119 4.3 6.1 0.00 4.41 0.00 62 1011.7
20260906204404 95 202 1.7 5.2 0.00 4.41 0.00 60 1011.8
20260906203904 96 197 2.6 7.0 0.00 4.41 0.00 58 1011.7
20260906203404 97 195 2.6 10.4 0.00 4.41 0.00 57 1012.0
20260906202904 98 188 2.6 10.4 0.00 5.04 0.00 57 1012.2
20260906202404 98 154 4.3 7.8 0.00 5.67 0.00 59 1012.1
20260906201904 97 174 1.7 7.0 0.00 5.67 0.00 60 1012.1
20260906201405 96 188 0.9 4.3 0.00 5.67 0.00 61 1012.0
20260906200904 95 163 1.7 4.3 0.00 5.67 0.00 61 1012.1
20260906200404 94 216 2.6 4.3 0.00 5.67 0.00 61 1012.1
20260906195403 94 194 2.6 6.1 0.00 5.67 0.00 62 1012.3
20260906194904 94 211 1.7 6.1 0.00 5.67 0.00 62 1012.4
20260906193904 94 223 2.6 5.2 0.00 5.67 0.00 61 1012.6
20260906193404 95 222 2.6 5.2 0.00 5.67 0.00 62 1012.7
20260906192904 95 189 0.9 2.6 0.00 5.67 0.00 62 1012.8
20260906192404 95 202 0.9 2.6 0.00 5.67 0.00 62 1012.9
20260906191904 94 198 1.7 4.3 0.00 5.67 0.00 63 1012.9
20260906191404 94 208 1.7 4.3 0.00 5.67 0.00 65 1012.9
20260906190904 92 123 0.0 0.0 0.00 5.67 0.00 69 1012.9
20260906185904 91 123 0.0 0.0 0.00 6.30 0.00 68 1012.9
20260906185404 91 123 0.0 1.7 0.00 6.30 0.00 69 1013.0
20260906184904 90 123 0.0 2.6 0.00 6.30 0.00 72 1013.1
20260906184404 89 123 0.9 2.6 0.00 6.35 0.00 71 1013.1
20260906183904 89 124 0.0 4.3 0.00 6.40 0.00 71 1013.0
20260906183404 89 125 0.9 5.2 0.00 6.45 0.00 73 1013.1
20260906182904 89 191 2.6 6.1 0.00 6.48 0.00 72 1013.3
20260906182404 89 137 2.6 7.0 0.00 6.57 0.00 70 1013.2
20260906181404 90 97 1.7 7.8 0.00 6.84 0.00 67 1013.5
20260906180903 90 131 2.6 7.8 0.00 6.98 0.00 66 1013.6
20260906180404 90 163 5.2 7.8 0.00 7.06 0.00 71 1013.4
20260906175404 90 185 3.5 10.4 0.00 7.33 0.00 71 1013.6
20260906174903 90 172 4.3 10.4 0.00 1.01 0.00 70 1013.6
20260906173904 92 170 3.5 7.8 0.00 1.17 0.00 65 1013.5
20260906173404 93 186 3.5 7.8 0.00 1.17 0.00 64 1013.5
20260906171904 92 174 2.6 5.2 0.00 1.17 0.00 66 1013.6
20260906171404 92 154 2.6 7.0 0.00 1.17 0.00 68 1013.7
20260906170904 92 209 1.7 7.0 0.00 1.17 0.00 69 1013.9
20260906170404 92 194 5.2 7.8 0.00 1.17 0.00 70 1013.9
20260906165904 91 182 4.3 7.8 0.00 1.17 0.00 69 1013.9
20260906165404 90 172 4.3 10.4 0.00 1.17 0.00 70 1013.8
20260906164904 91 196 4.3 10.4 0.00 1.17 0.00 69 1013.8
20260906164404 92 176 8.7 8.7 0.00 1.17 0.00 67 1013.9
20260906163904 93 200 7.8 8.7 0.00 1.17 0.00 66 1013.9
20260906162904 92 179 2.6 6.1 0.00 1.17 0.00 67 1013.8
20260906162405 92 150 2.6 4.3 0.00 1.17 0.00 71 1013.9
20260906161905 91 155 0.0 4.3 0.00 1.17 0.00 72 1013.8
20260906161405 90 155 0.9 4.3 0.00 1.17 0.00 72 1013.8
20260906160904 90 22 0.9 2.6 0.00 1.17 0.00 72 1013.9
20260906160404 89 18 0.9 2.6 0.00 1.17 0.00 75 1013.9
20260906154904 87 17 0.0 2.6 0.00 1.17 0.00 75 1013.7
20260906153903 87 17 0.9 6.1 0.00 1.17 0.00 76 1013.7
20260906153404 87 2 2.6 6.1 0.00 1.17 0.00 74 1013.6
20260906152904 87 53 1.7 7.0 0.00 1.17 0.00 75 1013.7
20260906152405 87 26 1.7 7.0 0.00 1.17 0.00 76 1013.8
20260906151905 87 67 7.0 7.0 0.00 1.17 0.00 76 1013.7
20260906150904 86 354 0.9 7.0 0.00 1.17 0.00 85 1013.6
20260906150404 86 0 0.9 2.6 0.00 1.17 0.00 83 1013.6
20260906145404 86 54 0.0 2.6 0.00 1.17 0.00 84 1013.6
20260906144905 86 54 0.0 2.6 0.00 1.17 0.00 83 1013.5
20260906144404 87 54 1.7 2.6 0.00 1.17 0.00 84 1013.5
20260906143905 87 74 0.0 0.9 0.00 1.17 0.00 84 1013.6
20260906143404 86 92 0.0 0.0 0.00 1.17 0.00 85 1013.7
20260906142904 86 92 0.0 0.0 0.00 1.17 0.00 86 1013.6
20260906142404 86 92 0.0 0.0 0.00 1.17 0.00 88 1013.5
20260906141904 85 92 0.0 0.0 0.00 1.17 0.00 89 1013.5
20260906141405 84 92 0.0 0.0 0.00 1.17 0.00 92 1013.6
20260906140904 84 92 0.0 0.0 0.00 1.17 0.00 95 1013.5
20260906140404 83 92 0.0 0.0 0.00 1.17 0.00 95 1013.5
20260906135404 82 92 0.0 0.0 0.00 1.17 0.00 96 1013.4
20260906134904 81 92 0.0 0.0 0.00 1.17 0.00 96 1013.4
20260906133904 80 92 0.0 0.0 0.00 1.17 0.00 96 1013.5
20260906133404 80 92 0.0 0.0 0.00 1.17 0.00 96 1013.4
20260906131904 79 92 0.0 0.0 0.00 1.17 0.00 95 1013.2
20260906130905 78 92 0.0 0.0 0.00 1.17 0.00 95 1012.9
20260906124904 78 92 0.0 0.0 0.00 1.17 0.00 94 1012.7
20260906124404 78 92 0.0 0.0 0.00 1.17 0.00 94 1012.6
20260906123904 77 92 0.0 0.0 0.00 1.17 0.00 94 1012.6
20260906123404 77 92 0.0 0.0 0.00 1.17 0.00 94 1012.6
20260906122904 77 92 0.0 0.0 0.00 1.17 0.00 94 1012.6
20260906121903 77 92 0.0 0.0 0.00 1.17 0.00 94 1012.5
20260906121404 77 92 0.0 0.0 0.00 1.17 0.00 94 1012.4
20260906120904 77 92 0.0 0.0 0.00 1.17 0.00 94 1012.3
20260906120405 77 92 0.0 0.0 0.00 1.17 0.00 94 1012.3
20260906115904 77 92 0.0 0.0 0.00 1.17 0.00 94 1012.2
20260906114904 78 92 0.0 0.0 0.00 1.17 0.00 94 1012.2
20260906114404 78 92 0.0 0.0 0.00 1.17 0.00 94 1012.1
20260906113905 78 92 0.0 0.0 0.00 1.17 0.00 94 1012.1
20260906113404 78 92 0.0 0.0 0.00 1.17 0.00 94 1012.1
20260906112904 78 92 0.0 0.0 0.00 1.17 0.00 94 1012.0
20260906112405 78 92 0.0 0.0 0.00 1.17 0.00 94 1011.9
20260906111903 78 92 0.0 0.0 0.00 1.17 0.00 94 1012.0
20260906110903 78 92 0.0 0.0 0.00 1.17 0.00 94 1011.9
20260906110405 78 92 0.0 0.0 0.00 1.17 0.00 93 1011.8
20260906105404 78 92 0.0 0.0 0.00 1.17 0.00 93 1011.8
20260906104903 78 92 0.0 0.0 0.00 1.17 0.00 94 1011.8
20260906104404 78 92 0.0 0.0 0.00 1.17 0.00 94 1011.6
20260906103904 78 92 0.0 0.0 0.00 1.17 0.00 94 1011.6
20260906103405 78 92 0.0 0.0 0.00 1.17 0.00 93 1011.7
20260906102904 78 92 0.0 0.0 0.00 1.17 0.00 93 1011.7
20260906102405 78 92 0.0 0.0 0.00 1.17 0.00 93 1011.7
20260906101904 78 92 0.0 0.0 0.00 1.17 0.00 93 1011.7
20260906095904 78 92 0.0 0.0 0.00 1.17 0.00 93 1011.6
20260906094904 79 92 0.0 0.0 0.00 1.17 0.00 93 1011.5
20260906094404 79 92 0.0 0.0 0.00 1.17 0.00 93 1011.5
20260906093404 79 92 0.0 0.0 0.00 1.17 0.00 93 1011.4
20260906092905 79 92 0.0 0.0 0.00 1.17 0.00 93 1011.4
20260906091904 79 92 0.0 0.0 0.00 1.17 0.00 93 1011.3
20260906091405 79 92 0.0 0.0 0.00 1.17 0.00 93 1011.4
20260906090903 79 92 0.0 0.0 0.00 1.17 0.00 93 1011.4
20260906090404 79 92 0.0 0.0 0.00 1.17 0.00 93 1011.4
20260906085904 79 92 0.0 0.0 0.00 1.17 0.00 93 1011.4
20260906085403 79 92 0.0 0.0 0.00 1.17 0.00 93 1011.4
20260906084404 79 92 0.0 0.0 0.00 1.17 0.00 93 1011.3
20260906083904 79 92 0.0 0.0 0.00 1.17 0.00 93 1011.2
20260906083405 79 92 0.0 0.0 0.00 1.17 0.00 93 1011.2
20260906082904 79 92 0.0 0.0 0.00 1.17 0.00 93 1011.3
20260906082403 79 92 0.0 0.0 0.00 1.17 0.00 93 1011.4
20260906081903 79 92 0.0 0.0 0.00 1.17 0.00 93 1011.4
20260906081404 79 92 0.0 0.0 0.00 1.17 0.00 93 1011.4
20260906080904 79 92 0.0 0.0 0.00 1.17 0.00 93 1011.4
20260906080404 79 92 0.0 0.0 0.00 1.17 0.00 93 1011.5
20260906075905 79 92 0.0 0.0 0.00 1.17 0.00 93 1011.5
20260906074904 79 92 0.0 0.0 0.00 1.17 0.00 93 1011.5
20260906074403 79 92 0.0 0.0 0.00 1.17 0.00 93 1011.5
20260906073903 79 92 0.0 0.0 0.00 1.17 0.00 93 1011.4
20260906072905 79 92 0.0 0.0 0.00 1.17 0.00 93 1011.5
20260906071905 80 92 0.0 0.0 0.00 1.17 0.00 93 1011.5
20260906071405 80 92 0.0 0.0 0.00 1.17 0.00 93 1011.5
20260906070404 80 92 0.0 0.0 0.00 1.17 0.00 93 1011.7
20260906065905 80 92 0.0 0.0 0.00 1.17 0.00 93 1011.7
20260906065405 80 92 0.0 0.0 0.00 1.17 0.00 93 1011.7
20260906064404 80 92 0.0 0.0 0.00 1.17 0.00 93 1011.6
20260906063405 80 92 0.0 0.0 0.00 1.17 0.00 93 1011.6
20260906061905 80 92 0.0 0.0 0.00 1.17 0.00 93 1011.8
20260906060904 80 92 0.0 0.0 0.00 1.17 0.00 92 1011.7
20260906055905 80 92 0.0 0.0 0.00 1.17 0.00 92 1011.7
20260906055405 80 92 0.0 0.0 0.00 1.38 0.00 92 1011.6
20260906053403 80 92 0.0 0.0 0.00 2.42 0.00 92 1011.7
20260906052904 80 92 0.0 0.0 0.00 2.78 0.00 92 1011.7
20260906052404 80 92 0.0 0.0 0.00 3.02 0.00 92 1011.7
20260906051904 80 92 0.0 0.0 0.00 3.27 0.00 92 1011.7
20260906051405 80 92 0.0 0.0 0.00 3.53 0.00 92 1011.6
20260906050905 80 92 0.0 0.0 0.00 3.84 0.00 92 1011.7
20260906050404 80 92 0.0 0.0 0.00 4.05 0.00 92 1011.7
20260906045904 80 92 0.0 0.0 0.00 4.31 0.63 92 1011.8
20260906045404 80 92 0.0 0.0 0.00 4.62 0.63 92 1011.7
20260906044405 80 92 0.0 0.0 0.00 5.21 0.63 92 1011.6
20260906043405 80 92 0.0 0.0 0.00 5.85 0.63 91 1011.6
20260906042904 80 92 0.0 0.0 0.00 6.14 0.63 91 1011.8
20260906042404 81 92 0.0 0.0 0.00 6.32 0.63 91 1011.8
20260906041904 81 92 0.0 0.0 0.00 6.57 0.63 91 1011.8
20260906041404 81 92 0.0 0.0 0.00 6.80 0.63 91 1011.8
20260906040405 81 92 0.0 0.0 0.63 7.38 0.00 91 1011.8
20260906035904 81 92 0.0 0.0 0.00 7.68 0.63 91 1011.9
20260906035405 81 92 0.0 0.0 0.00 7.99 0.63 91 1011.9
20260906034904 81 92 0.0 0.0 0.63 8.31 0.63 91 1011.8
20260906034404 81 92 0.0 0.0 0.00 8.62 0.63 91 1011.9
20260906033904 81 92 0.0 0.0 0.00 8.86 0.63 90 1012.0
20260906033404 81 92 0.0 0.0 0.00 9.15 0.63 90 1012.0
20260906032904 81 92 0.0 0.0 0.00 9.37 0.63 90 1012.0
20260906032404 81 92 0.0 0.0 0.00 9.72 0.63 90 1011.9
20260906031403 82 92 0.0 0.0 0.00 1.02 0.63 90 1011.8
20260906030904 82 92 0.0 0.0 0.00 1.04 0.63 90 1011.8
20260906030404 82 92 0.0 1.7 0.00 1.06 0.63 90 1011.7
20260906025904 82 92 0.0 1.7 0.00 1.09 0.63 90 1011.8
20260906025404 82 92 0.9 1.7 0.00 1.11 0.63 90 1011.8
20260906024405 82 92 0.0 1.7 0.00 1.17 0.63 90 1011.7
20260906023904 82 92 0.0 0.9 0.00 1.20 0.63 90 1011.5
20260906022904 82 92 0.0 1.7 0.00 1.26 0.63 89 1011.5
20260906021904 82 90 0.0 0.0 0.00 1.31 0.63 89 1011.3
20260906021404 82 90 0.0 0.0 0.00 1.34 0.63 88 1011.2
20260906020905 82 90 0.0 0.0 0.00 1.36 0.63 88 1011.2
20260906020404 83 90 0.0 0.0 0.00 1.39 0.63 88 1011.2
20260906015404 83 90 0.0 0.0 0.00 1.45 0.63 88 1011.0
20260906013904 83 90 0.0 0.0 0.00 1.53 0.63 87 1011.0
20260906013403 83 90 0.0 0.0 0.00 1.55 0.63 87 1010.9
20260906012903 83 90 0.0 1.7 0.00 1.58 0.63 87 1010.8
20260906012404 83 90 0.0 1.7 0.00 1.60 0.63 86 1010.8
20260906011904 83 89 0.9 1.7 0.00 1.63 0.63 86 1010.8
20260906011405 84 86 0.9 1.7 0.00 1.66 0.63 86 1010.9
20260906010904 84 83 0.0 2.6 0.00 1.68 0.63 85 1010.9
20260906010404 84 74 0.9 2.6 0.00 1.70 0.63 85 1010.8
20260906005904 84 102 0.9 2.6 0.00 1.73 0.63 84 1010.8
20260906005403 84 62 0.9 2.6 0.00 1.76 0.63 83 1010.9
20260906004405 85 119 0.9 1.7 0.00 1.81 0.63 82 1010.9
20260906003903 85 119 0.0 5.2 0.00 1.83 0.63 82 1010.9
20260906002903 85 144 1.7 4.3 0.00 1.88 0.63 82 1010.9
20260906001904 85 108 0.9 2.6 0.00 1.94 0.63 82 1011.0
20260906001404 85 134 0.9 2.6 0.00 1.97 0.63 82 1011.2
20260906000904 85 136 1.7 7.0 0.63 2.00 0.63 82 1011.3
20260906000404 85 84 1.7 7.0 0.63 2.02 0.63 82 1011.5
20260905235904 86 118 2.6 7.0 0.00 2.05 0.63 82 1011.6
20260905235404 86 69 1.7 6.1 0.00 2.08 0.63 81 1011.5
20260905234904 86 124 1.7 6.1 0.00 2.11 0.63 81 1011.5
20260905234404 86 105 2.6 6.1 0.00 2.14 0.63 81 1011.4
20260905233904 86 100 0.9 6.1 0.00 2.16 0.63 80 1011.4
20260905233404 86 94 0.9 6.1 0.00 2.18 0.63 80 1011.3
20260905232904 86 135 1.7 5.2 0.00 2.21 0.63 80 1011.3
20260905232404 86 130 0.9 5.2 0.00 2.24 0.63 79 1011.3